1506117600.3,41725,15.44,73712.3,-2.59,-4.13,-4.13,0,*5B
1506117601.53,41726,15.44,73710.5,-2.59,-4.05,-4.13,0,*5F
1506117602.75,41727,15.44,73708.3,-2.59,-4.13,-4.13,0,*59
1506117603.98,41728,15.44,73710.0,-2.59,-4.13,-4.13,0,*56
1506117605.17,41729,15.44,73714.3,-2.61,-4.05,-4.13,0,*5B
1506117606.37,41730,15.44,73708.8,-2.61,-4.05,-4.13,0,*53
1506117607.59,41731,15.44,73710.0,-2.63,-4.05,-4.17,0,*54
1506117608.82,41732,15.44,73706.8,-2.61,-4.01,-4.05,0,*52
1506117610.02,41733,15.44,73708.5,-2.61,-4.05,-4.13,0,*50
1506117611.25,41734,15.44,73708.5,-2.61,-3.91,-4.01,0,*5E
1506117612.47,41735,15.44,73708.3,-2.61,-3.91,-4.01,0,*5F
1506117613.71,41736,15.44,73706.8,-2.61,-3.91,-4.01,0,*5C
1506117614.93,41737,15.44,73708.3,-2.63,-3.95,-4.05,0,*5F
1506117616.16,41738,15.44,73702.8,-2.63,-3.91,-3.95,0,*5A
1506117617.4,41739,15.44,73700.5,-2.63,-3.83,-3.91,0,*5C
1506117618.63,41740,15.44,73706.5,-2.63,-3.83,-3.91,0,*52
1506117619.83,41741,15.44,73704.8,-2.61,-3.75,-3.87,0,*5F
1506117621.03,41742,15.44,73710.8,-2.61,-3.79,-3.87,0,*50
1506117622.26,41743,15.44,73710.0,-2.63,-3.79,-3.83,0,*57
1506117623.51,41744,15.44,73708.3,-2.63,-3.71,-3.83,0,*58
1506117624.75,41745,15.44,73706.8,-2.63,-3.71,-3.83,0,*59
1506117625.99,41746,15.44,73714.8,-2.61,-3.67,-3.67,0,*55
1506117627.26,41747,15.44,73714.8,-2.63,-3.59,-3.71,0,*5C
1506117628.5,41748,15.44,73700.3,-2.61,-3.43,-3.43,0,*5B
1506117629.74,41749,15.44,73698.3,-2.61,-3.43,-3.51,0,*59
1506117630.98,41750,15.44,73694.8,-2.61,-3.43,-3.43,0,*52
1506117632.23,41751,15.44,73702.3,-2.61,-3.43,-3.43,0,*53
1506117633.45,41752,15.44,73708.0,-2.61,-3.35,-3.43,0,*51
1506117634.67,41753,15.44,73708.3,-2.59,-3.35,-3.35,0,*5A
1506117635.86,41754,15.44,73700.5,-2.57,-3.11,-3.11,0,*53
1506117637.05,41755,15.44,73702.3,-2.57,-3.19,-3.23,0,*5B
1506117638.27,41756,15.44,73698.3,-2.59,-3.39,-3.39,0,*5F
1506117639.46,41757,15.44,73692.3,-2.57,-3.35,-3.39,0,*5C
1506117640.66,41758,15.44,73700.8,-2.57,-3.35,-3.39,0,*53
1506117641.87,41759,15.44,73700.5,-2.57,-3.39,-3.47,0,*57
1506117643.11,41760,15.44,73698.0,-2.57,-3.47,-3.51,0,*53
1506117644.38,41761,15.44,73696.5,-2.59,-3.55,-3.63,0,*5E
1506117645.61,41762,15.44,73696.5,-2.57,-3.71,-3.71,0,*56
1506117646.85,41763,15.44,73702.3,-2.57,-3.63,-3.63,0,*57
1506117648.11,41764,15.44,73704.5,-2.59,-3.55,-3.63,0,*5B
1506117649.35,41765,15.44,73704.3,-2.57,-3.59,-3.71,0,*5B
1506117650.61,41766,15.44,73700.8,-2.59,-3.55,-3.55,0,*5C
1506117651.85,41767,15.44,73704.8,-2.57,-3.47,-3.51,0,*54
1506117653.05,41768,15.44,73700.0,-2.57,-3.39,-3.39,0,*5C
1506117654.24,41769,15.44,73702.0,-2.57,-3.39,-3.39,0,*5D
1506117655.51,41770,15.44,73706.0,-2.55,-3.55,-3.59,0,*5B
1506117656.78,41771,15.44,73700.0,-2.55,-3.55,-3.59,0,*5A
1506117658.04,41772,15.44,73706.0,-2.55,-3.47,-3.67,0,*57
1506117659.28,41773,15.44,73712.0,-2.57,-3.51,-3.63,0,*57
1506117660.5,41774,15.44,73710.5,-2.57,-3.71,-3.75,0,*55
1506117661.76,41775,15.44,73718.0,-2.59,-3.63,-3.71,0,*5D
1506117663.0,41776,15.44,73716.5,-2.57,-3.59,-3.63,0,*5A
1506117664.24,41777,15.44,73714.8,-2.57,-3.63,-3.71,0,*51
1506117665.48,41778,15.44,73710.3,-2.57,-3.59,-3.63,0,*54
1506117666.75,41779,15.44,73710.0,-2.55,-3.59,-3.67,0,*53
1506117667.97,41780,15.44,73714.8,-2.57,-3.63,-3.75,0,*5D
1506117669.24,41781,15.44,73718.0,-2.55,-3.59,-3.59,0,*59
1506117670.48,41782,15.44,73712.8,-2.57,-3.59,-3.71,0,*52
1506117671.71,41783,15.44,73712.5,-2.57,-3.71,-3.71,0,*59
1506117672.93,41784,15.44,73710.8,-2.57,-3.63,-3.75,0,*59
1506117674.19,41785,15.44,73708.5,-2.55,-3.55,-3.67,0,*5C
1506117675.44,41786,15.44,73714.3,-2.55,-3.67,-3.79,0,*51
1506117676.64,41787,15.44,73714.8,-2.57,-3.75,-3.83,0,*54
1506117677.86,41788,15.44,73714.3,-2.59,-3.87,-3.87,0,*5C
1506117679.09,41789,15.44,73712.8,-2.59,-3.79,-3.87,0,*5C
1506117680.32,41790,15.44,73714.8,-2.59,-3.79,-3.91,0,*53
1506117681.54,41791,15.44,73712.5,-2.59,-3.87,-3.87,0,*54
1506117682.76,41792,15.44,73716.5,-2.59,-3.87,-3.87,0,*57
1506117683.99,41793,15.44,73718.5,-2.59,-3.87,-3.91,0,*51
1506117685.21,41794,15.44,73718.0,-2.59,-3.87,-3.91,0,*56
1506117686.44,41795,15.44,73712.5,-2.59,-3.87,-3.91,0,*57
1506117687.66,41796,15.44,73708.8,-2.59,-3.87,-3.87,0,*53
1506117688.9,41797,15.44,73706.3,-2.61,-3.67,-3.67,0,*59
1506117690.14,41798,15.44,73710.5,-2.57,-3.51,-3.51,0,*53
1506117691.41,41799,15.44,73712.3,-2.59,-3.55,-3.63,0,*59
1506117692.64,41800,15.44,73714.3,-2.57,-3.59,-3.63,0,*54
1506117693.89,41801,15.44,73712.8,-2.57,-3.59,-3.59,0,*5C
1506117695.12,41802,15.44,73714.8,-2.59,-3.75,-3.79,0,*5D
1506117696.37,41803,15.44,73712.8,-2.59,-3.67,-3.75,0,*53
1506117697.6,41804,15.44,73714.0,-2.59,-3.75,-3.75,0,*57
1506117698.82,41805,15.44,73714.0,-2.59,-3.87,-3.87,0,*56
1506117700.05,41806,15.44,73716.5,-2.59,-3.87,-3.91,0,*52
1506117701.26,41807,15.44,73714.8,-2.57,-3.71,-3.87,0,*53
1506117702.49,41808,15.44,73714.5,-2.59,-3.79,-3.91,0,*5D
1506117703.72,41809,15.44,73720.8,-2.59,-3.79,-3.87,0,*5B
1506117704.95,41810,15.44,73716.3,-2.59,-3.79,-3.87,0,*53
1506117706.2,41811,15.44,73716.8,-2.59,-3.67,-3.79,0,*5C
1506117707.46,41812,15.44,73718.0,-2.59,-3.67,-3.67,0,*50
1506117708.71,41813,15.44,73718.5,-2.59,-3.67,-3.79,0,*5E
1506117709.94,41814,15.44,73720.8,-2.59,-3.75,-3.79,0,*5A
1506117711.17,41815,15.44,73722.0,-2.59,-3.75,-3.79,0,*5B
1506117712.38,41816,15.44,73722.0,-2.61,-3.79,-3.87,0,*5E
1506117713.6,41817,15.44,73720.0,-2.61,-3.67,-3.75,0,*5D
1506117714.84,41818,15.44,73726.5,-2.61,-3.67,-3.63,0,*55
1506117716.08,41819,15.44,73728.8,-2.61,-3.63,-3.63,0,*50
1506117717.35,41820,15.44,73724.3,-2.63,-3.59,-3.67,0,*55
1506117718.61,41821,15.44,73716.8,-2.59,-3.63,-3.63,0,*50
1506117719.88,41822,15.44,73708.5,-2.59,-3.63,-3.67,0,*57
1506117721.13,41823,15.44,73714.0,-2.59,-3.67,-3.75,0,*51
1506117722.34,41824,15.44,73714.0,-2.61,-3.75,-3.79,0,*52
1506117723.54,41825,15.44,73710.3,-2.61,-3.75,-3.75,0,*5F
1506117724.76,41826,15.44,73708.3,-2.61,-3.67,-3.79,0,*53
1506117725.97,41827,15.44,73704.8,-2.61,-3.79,-3.87,0,*5C
1506117727.17,41828,15.44,73708.5,-2.61,-3.79,-3.91,0,*54
1506117728.37,41829,15.44,73708.3,-2.61,-3.87,-3.87,0,*53
1506117729.57,41830,15.44,73710.5,-2.61,-3.87,-3.91,0,*5C
1506117730.77,41831,15.44,73708.3,-2.61,-3.87,-3.91,0,*5D
1506117732.0,41832,15.44,73714.5,-2.63,-3.79,-3.83,0,*5E
1506117733.23,41833,15.44,73714.0,-2.63,-3.79,-3.91,0,*5C
1506117734.43,41834,15.44,73710.0,-2.61,-3.79,-3.87,0,*5E
1506117735.63,41835,15.44,73708.5,-2.61,-3.87,-3.91,0,*59
1506117736.83,41836,15.44,73712.0,-2.61,-3.87,-3.91,0,*5A
1506117738.06,41837,15.44,73712.5,-2.63,-3.91,-4.05,0,*54
1506117739.28,41838,15.44,73708.5,-2.63,-4.05,-4.05,0,*51
1506117740.49,41839,15.44,73710.5,-2.61,-3.91,-4.05,0,*58
1506117741.71,41840,15.44,73712.3,-2.63,-4.05,-4.09,0,*52
1506117742.93,41841,15.44,73710.5,-2.63,-4.09,-4.05,0,*53
1506117744.15,41842,15.44,73714.3,-2.63,-4.05,-4.05,0,*5C
1506117745.35,41843,15.44,73710.8,-2.61,-4.05,-4.09,0,*53
1506117746.57,41844,15.44,73708.5,-2.63,-4.05,-4.09,0,*56
1506117747.79,41845,15.44,73706.0,-2.63,-4.05,-4.17,0,*58
1506117748.98,41846,15.44,73704.0,-2.65,-4.05,-4.17,0,*5D
1506117750.21,41847,15.44,73706.0,-2.63,-3.95,-4.09,0,*5B
1506117751.43,41848,15.44,73716.3,-2.63,-4.05,-4.09,0,*5A
1506117752.66,41849,15.44,73708.5,-2.67,-3.87,-3.95,0,*50
1506117753.86,41850,15.44,73702.8,-2.65,-3.91,-4.05,0,*53
1506117755.12,41851,15.44,73702.3,-2.67,-3.95,-4.01,0,*50
1506117756.31,41852,15.44,73698.8,-2.65,-3.87,-3.87,0,*5B
1506117757.52,41853,15.44,73694.5,-2.65,-3.75,-3.75,0,*5A
1506117758.78,41854,15.44,73692.5,-2.63,-3.59,-3.67,0,*56
1506117760.02,41855,15.44,73696.8,-2.65,-3.47,-3.55,0,*5F
1506117761.26,41856,15.44,73716.8,-2.65,-3.47,-3.55,0,*5C
1506117762.53,41857,15.44,73712.0,-2.63,-3.55,-3.67,0,*59
1506117763.8,41858,15.38,73708.3,-2.63,-3.59,-3.67,0,*5A
1506117765.05,41859,15.44,73708.5,-2.63,-3.79,-3.71,0,*5E
1506117766.3,41860,15.44,73710.3,-2.63,-3.67,-3.75,0,*5F
1506117767.54,41861,15.44,73712.3,-2.63,-3.71,-3.79,0,*55
1506117768.79,41862,15.44,73714.3,-2.63,-3.67,-3.79,0,*51
1506117770.02,41863,15.44,73716.3,-2.63,-3.79,-3.79,0,*5F
1506117771.27,41864,15.44,73716.0,-2.63,-3.71,-3.83,0,*55
1506117772.52,41865,15.44,73718.3,-2.63,-3.71,-3.79,0,*51
1506117773.75,41866,15.44,73716.3,-2.63,-3.79,-3.79,0,*5A
1506117775.01,41867,15.44,73708.5,-2.63,-3.67,-3.67,0,*5B
1506117776.29,41868,15.38,73702.5,-2.63,-3.59,-3.59,0,*54
1506117777.55,41869,15.44,73704.5,-2.63,-3.55,-3.47,0,*56
1506117778.79,41870,15.44,73700.5,-2.61,-3.43,-3.43,0,*5F
1506117780.04,41871,15.44,73700.5,-2.61,-3.43,-3.43,0,*5E
1506117781.31,41872,15.44,73702.0,-2.63,-3.47,-3.59,0,*50
1506117782.58,41873,15.44,73706.3,-2.63,-3.67,-3.67,0,*5E
1506117783.84,41874,15.44,73714.0,-2.63,-3.59,-3.71,0,*53
1506117785.08,41875,15.44,73716.5,-2.61,-3.63,-3.67,0,*5E
1506117786.31,41876,15.38,73710.8,-2.61,-3.67,-3.75,0,*5A
1506117787.54,41877,15.44,73706.8,-2.63,-3.79,-3.91,0,*5C
1506117788.77,41878,15.44,73704.5,-2.63,-3.79,-3.83,0,*50
1506117790.0,41879,15.44,73708.5,-2.63,-3.79,-3.91,0,*52
1506117791.2,41880,15.44,73708.3,-2.61,-3.87,-3.91,0,*57
1506117792.43,41881,15.44,73706.8,-2.63,-3.91,-3.95,0,*57
1506117793.64,41882,15.44,73716.0,-2.61,-3.75,-3.79,0,*5E
1506117794.84,41883,15.44,73712.8,-2.61,-3.75,-3.75,0,*53
1506117796.09,41884,15.44,73706.5,-2.63,-3.71,-3.79,0,*5E
1506117797.34,41885,15.44,73700.0,-2.63,-3.71,-3.91,0,*59
1506117798.59,41886,15.44,73706.0,-2.63,-3.67,-3.79,0,*5B
1506117799.82,41887,15.44,73708.8,-2.63,-3.79,-3.83,0,*50
1506117801.05,41888,15.44,73710.3,-2.63,-3.79,-3.83,0,*5F
1506117802.29,41889,15.44,73700.8,-2.61,-3.67,-3.67,0,*59
1506117803.56,41890,15.44,73708.0,-2.63,-3.59,-3.67,0,*5E
1506117804.83,41891,15.44,73702.0,-2.63,-3.55,-3.59,0,*5E
1506117806.09,41892,15.44,73704.3,-2.63,-3.47,-3.47,0,*51
1506117807.36,41893,15.44,73706.5,-2.63,-3.47,-3.47,0,*50
1506117808.63,41894,15.44,73714.0,-2.63,-3.59,-3.67,0,*5A
1506117809.87,41895,15.44,73714.0,-2.61,-3.55,-3.67,0,*55
1506117811.12,41896,15.44,73708.5,-2.63,-3.67,-3.79,0,*5A
1506117812.35,41897,15.44,73714.8,-2.61,-3.55,-3.63,0,*53
1506117813.58,41898,15.44,73714.5,-2.61,-3.71,-3.79,0,*51
1506117814.8,41899,15.44,73706.8,-2.63,-3.79,-3.83,0,*5F
1506117816.05,41900,15.44,73706.3,-2.63,-3.71,-3.79,0,*53
1506117817.3,41901,15.44,73710.3,-2.63,-3.71,-3.83,0,*57
1506117818.55,41902,15.44,73708.0,-2.63,-3.71,-3.79,0,*51
1506117819.79,41903,15.44,73710.5,-2.61,-3.51,-3.55,0,*5E
1506117821.05,41904,15.44,73708.8,-2.63,-3.55,-3.67,0,*5E
1506117822.32,41905,15.44,73712.8,-2.63,-3.59,-3.71,0,*54
1506117823.56,41906,15.44,73710.3,-2.61,-3.55,-3.63,0,*5A
1506117824.83,41907,15.44,73712.8,-2.63,-3.59,-3.59,0,*5C
1506117826.08,41908,15.44,73704.8,-2.61,-3.51,-3.51,0,*51
1506117827.34,41909,15.44,73704.5,-2.63,-3.67,-3.71,0,*55
1506117828.58,41910,15.44,73704.8,-2.63,-3.71,-3.83,0,*57
1506117829.85,41911,15.44,73706.0,-2.63,-3.71,-3.71,0,*5B
1506117831.11,41912,15.44,73700.0,-2.63,-3.71,-3.71,0,*58
1506117832.38,41913,15.44,73702.5,-2.63,-3.55,-3.59,0,*55
1506117833.63,41914,15.44,73696.8,-2.61,-3.47,-3.51,0,*5B
1506117834.85,41915,15.44,73696.3,-2.63,-3.39,-3.31,0,*57
1506117836.08,41916,15.44,73700.0,-2.63,-3.27,-3.27,0,*5C
1506117837.26,41917,15.44,73702.3,-2.61,-3.23,-3.23,0,*5F
1506117838.46,41918,15.44,73700.8,-2.61,-3.23,-3.27,0,*54
1506117839.67,41919,15.44,73702.5,-2.59,-3.23,-3.15,0,*5F
1506117840.89,41920,15.44,73698.5,-2.63,-3.31,-3.31,0,*59
1506117842.12,41921,15.44,73696.8,-2.59,-3.35,-3.35,0,*51
1506117843.34,41922,15.44,73704.5,-2.59,-3.35,-3.39,0,*5E
1506117844.57,41923,15.44,73696.5,-2.59,-3.39,-3.39,0,*53
1506117845.79,41924,15.44,73684.3,-2.59,-3.35,-3.39,0,*58
1506117846.98,41925,15.44,73690.5,-2.57,-3.31,-3.31,0,*5B
1506117848.21,41926,15.44,73692.5,-2.59,-3.35,-3.39,0,*5A
1506117849.4,41927,15.44,73700.3,-2.57,-3.31,-3.31,0,*59
1506117850.6,41928,15.44,73698.8,-2.57,-3.31,-3.35,0,*52
1506117851.79,41929,15.44,73696.0,-2.57,-3.31,-3.35,0,*53
1506117852.98,41930,15.44,73698.8,-2.57,-3.39,-3.39,0,*5F
1506117854.23,41931,15.44,73702.5,-2.57,-3.51,-3.59,0,*56
1506117855.47,41932,15.44,73702.5,-2.57,-3.63,-3.71,0,*5E
1506117856.71,41933,15.44,73698.8,-2.59,-3.67,-3.75,0,*51
1506117857.95,41934,15.44,73698.0,-2.57,-3.63,-3.63,0,*5B
1506117859.19,41935,15.44,73700.8,-2.57,-3.63,-3.71,0,*59
1506117860.46,41936,15.44,73704.8,-2.59,-3.43,-3.51,0,*54
1506117861.67,41937,15.44,73704.0,-2.57,-3.39,-3.51,0,*56
1506117862.94,41938,15.44,73704.8,-2.59,-3.43,-3.51,0,*5A
1506117864.16,41939,15.44,73708.0,-2.59,-3.35,-3.39,0,*54
1506117865.35,41940,15.44,73702.5,-2.57,-3.23,-3.35,0,*5F
1506117866.54,41941,15.44,73688.8,-2.57,-3.35,-3.31,0,*5D
1506117867.77,41942,15.44,73662.5,-2.59,-3.27,-3.35,0,*57
1506117868.95,41943,15.44,73658.0,-2.57,-3.23,-3.19,0,*52
1506117870.14,41944,15.44,73668.5,-2.57,-3.19,-3.23,0,*55
1506117871.33,41945,15.44,73682.8,-2.53,-3.03,-3.03,0,*59
1506117872.56,41946,15.44,73670.5,-2.55,-2.95,-3.07,0,*56
1506117873.75,41947,15.44,73670.5,-2.53,-3.07,-3.15,0,*58
1506117874.95,41948,15.44,73694.8,-2.53,-3.15,-3.07,0,*57
1506117876.14,41949,15.44,73690.3,-2.53,-3.07,-3.07,0,*55
1506117877.34,41950,15.44,73688.8,-2.53,-3.15,-3.19,0,*51
1506117878.53,41951,15.44,73690.3,-2.53,-3.19,-3.19,0,*5C
1506117879.72,41952,15.44,73696.8,-2.53,-3.31,-3.35,0,*5B
1506117880.94,41953,15.44,73696.3,-2.53,-3.35,-3.43,0,*5F
1506117882.19,41954,15.44,73700.3,-2.51,-3.39,-3.51,0,*55
1506117883.43,41955,15.38,73692.3,-2.55,-3.43,-3.35,0,*5F
1506117884.65,41956,15.44,73690.5,-2.53,-3.35,-3.43,0,*5A
1506117885.85,41957,15.44,73696.3,-2.53,-3.35,-3.35,0,*5A
1506117887.05,41958,15.44,73698.3,-2.53,-3.35,-3.35,0,*55
1506117888.24,41959,15.44,73698.8,-2.53,-3.27,-3.35,0,*57
1506117889.44,41960,15.38,73696.0,-2.53,-3.31,-3.35,0,*5A
1506117890.64,41961,15.44,73692.8,-2.53,-3.31,-3.35,0,*5B
1506117891.84,41962,15.44,73698.3,-2.53,-3.35,-3.35,0,*5C
1506117893.06,41963,15.44,73700.5,-2.53,-3.35,-3.43,0,*5C
1506117894.26,41964,15.44,73702.3,-2.53,-3.35,-3.35,0,*5A
1506117895.48,41965,15.44,73700.3,-2.51,-3.31,-3.31,0,*59
1506117896.69,41966,15.44,73696.8,-2.51,-3.31,-3.31,0,*5A
1506117897.91,41967,15.44,73702.0,-2.53,-3.35,-3.43,0,*58
1506117899.11,41968,15.44,73702.5,-2.53,-3.35,-3.35,0,*56
1506117900.33,41969,15.44,73700.0,-2.53,-3.35,-3.43,0,*56
1506117901.53,41970,15.44,73698.8,-2.53,-3.35,-3.35,0,*5F
1506117902.77,41971,15.44,73696.5,-2.53,-3.43,-3.43,0,*5E
1506117903.99,41972,15.44,73692.8,-2.51,-3.31,-3.39,0,*57
1506117905.26,41973,15.44,73694.8,-2.51,-3.43,-3.43,0,*5E
1506117906.52,41974,15.44,73692.3,-2.51,-3.43,-3.43,0,*59
1506117907.76,41975,15.44,73690.5,-2.53,-3.47,-3.47,0,*5A
1506117909.0,41976,15.44,73694.5,-2.53,-3.43,-3.43,0,*59
1506117910.22,41977,15.44,73690.0,-2.53,-3.35,-3.43,0,*59
1506117911.46,41978,15.44,73688.3,-2.53,-3.43,-3.55,0,*50
1506117912.72,41979,15.44,73688.0,-2.51,-3.43,-3.43,0,*54
1506117913.99,41980,15.44,73690.5,-2.51,-3.51,-3.51,0,*52
1506117915.23,41981,15.44,73686.0,-2.53,-3.43,-3.47,0,*55
1506117916.46,41982,15.44,73690.0,-2.53,-3.43,-3.47,0,*56
1506117917.7,41983,15.44,73694.8,-2.53,-3.47,-3.47,0,*53
1506117918.92,41984,15.44,73692.5,-2.53,-3.35,-3.43,0,*55
1506117920.16,41985,15.44,73694.0,-2.53,-3.43,-3.43,0,*55
1506117921.36,41986,15.44,73696.8,-2.53,-3.35,-3.35,0,*56
1506117922.56,41987,15.44,73698.3,-2.53,-3.35,-3.35,0,*57
1506117923.76,41988,15.44,73698.3,-2.53,-3.35,-3.35,0,*58
1506117924.98,41989,15.44,73700.8,-2.51,-3.27,-3.31,0,*5C
1506117926.2,41990,15.44,73702.8,-2.51,-3.27,-3.27,0,*53
1506117927.43,41991,15.44,73702.0,-2.51,-3.27,-3.27,0,*52
1506117928.64,41992,15.44,73706.3,-2.51,-3.23,-3.23,0,*51
1506117929.84,41993,15.44,73704.8,-2.51,-3.23,-3.23,0,*50
1506117931.06,41994,15.44,73708.5,-2.51,-3.15,-3.23,0,*52
1506117932.26,41995,15.44,73708.3,-2.49,-3.27,-3.27,0,*5F
1506117933.47,41996,15.44,73706.5,-2.51,-3.23,-3.27,0,*51
1506117934.7,41997,15.44,73704.3,-2.51,-3.27,-3.27,0,*54
1506117935.89,41998,15.44,73708.0,-2.49,-3.23,-3.27,0,*56
1506117937.07,41999,15.44,73708.8,-2.49,-3.23,-3.23,0,*53
1506117938.28,42000,15.44,73712.0,-2.51,-3.23,-3.15,0,*55
1506117939.47,42001,15.44,73714.0,-2.49,-3.15,-3.23,0,*5D
1506117940.66,42002,15.44,73708.0,-2.49,-3.15,-3.23,0,*5E
1506117941.84,42003,15.44,73706.0,-2.49,-3.23,-3.23,0,*5A
1506117943.03,42004,15.44,73708.3,-2.49,-3.27,-3.27,0,*5D
1506117944.22,42005,15.44,73704.5,-2.49,-3.23,-3.23,0,*5C
1506117945.4,42006,15.38,73704.3,-2.49,-3.23,-3.23,0,*5F
1506117946.6,42007,15.44,73704.3,-2.51,-3.23,-3.23,0,*57
1506117947.79,42008,15.44,73704.0,-2.49,-3.15,-3.23,0,*54
1506117948.98,42009,15.44,73704.8,-2.45,-3.11,-3.19,0,*54
1506117950.17,42010,15.44,73704.8,-2.49,-3.15,-3.23,0,*5D
1506117951.36,42011,15.44,73700.5,-2.45,-3.07,-3.19,0,*5A
1506117952.55,42012,15.44,73702.5,-2.45,-3.11,-3.07,0,*51
1506117953.74,42013,15.44,73700.0,-2.49,-3.11,-3.15,0,*5F
1506117954.94,42014,15.44,73704.3,-2.45,-3.11,-3.07,0,*57
1506117956.13,42015,15.44,73702.8,-2.45,-3.07,-3.11,0,*56
1506117957.33,42016,15.44,73696.8,-2.43,-3.07,-3.11,0,*53
1506117958.53,42017,15.44,73698.0,-2.43,-3.11,-2.99,0,*54
1506117959.73,42018,15.44,73698.8,-2.45,-2.99,-3.11,0,*5D
1506117960.93,42019,15.38,73696.0,-2.45,-2.95,-3.07,0,*57
1506117962.13,42020,15.44,73700.5,-2.43,-2.99,-3.07,0,*57
1506117963.32,42021,15.44,73700.8,-2.43,-3.07,-3.07,0,*50
1506117964.52,42022,15.44,73696.8,-2.45,-2.99,-3.11,0,*54
1506117965.72,42023,15.44,73696.0,-2.43,-2.99,-2.95,0,*5E
1506117966.92,42024,15.44,73698.0,-2.43,-2.99,-2.99,0,*55
1506117968.13,42025,15.38,73694.3,-2.43,-2.99,-2.99,0,*54
1506117969.33,42026,15.44,73698.3,-2.43,-2.95,-2.99,0,*5B
1506117970.54,42027,15.44,73696.8,-2.43,-2.95,-2.99,0,*5A
1506117971.75,42028,15.44,73700.0,-2.43,-2.99,-2.99,0,*59
1506117972.94,42029,15.44,73700.0,-2.43,-3.11,-3.11,0,*58
1506117974.16,42030,15.44,73700.3,-2.41,-3.07,-3.07,0,*52
1506117975.38,42031,15.44,73698.8,-2.41,-3.07,-3.15,0,*50
1506117976.58,42032,15.44,73698.5,-2.39,-3.07,-3.07,0,*5F
1506117977.8,42033,15.44,73702.0,-2.41,-3.07,-3.15,0,*52
1506117979.02,42034,15.44,73702.0,-2.41,-3.19,-3.19,0,*56
1506117980.24,42035,15.44,73704.5,-2.41,-3.15,-3.19,0,*5B
1506117981.46,42036,15.44,73702.3,-2.41,-3.15,-3.19,0,*58
1506117982.68,42037,15.44,73700.8,-2.41,-3.15,-3.15,0,*55
1506117983.91,42038,15.44,73702.8,-2.41,-3.15,-3.07,0,*59
1506117985.13,42039,15.44,73706.3,-2.41,-3.07,-3.07,0,*5B
1506117986.34,42040,15.44,73700.3,-2.39,-2.95,-3.07,0,*50
1506117987.56,42041,15.44,73706.0,-2.41,-3.03,-3.07,0,*50
1506117988.76,42042,15.44,73704.5,-2.39,-3.07,-3.07,0,*58
1506117989.98,42043,15.44,73708.8,-2.41,-3.19,-3.19,0,*56
1506117991.2,42044,15.44,73704.3,-2.41,-3.15,-3.15,0,*51
1506117992.39,42045,15.44,73706.0,-2.39,-3.19,-3.23,0,*56
1506117993.59,42046,15.44,73704.8,-2.39,-3.19,-3.23,0,*55
1506117994.78,42047,15.44,73704.0,-2.39,-3.23,-3.19,0,*54
1506117995.99,42048,15.44,73702.3,-2.39,-3.15,-3.19,0,*5E
1506117997.19,42049,15.44,73706.8,-2.39,-3.15,-3.19,0,*5F
1506117998.38,42050,15.44,73700.5,-2.39,-3.19,-3.19,0,*5B
1506117999.59,42051,15.44,73700.3,-2.39,-3.15,-3.19,0,*56
1506118000.78,42052,15.44,73698.5,-2.39,-3.19,-3.19,0,*59
1506118001.98,42053,15.44,73698.0,-2.39,-3.23,-3.19,0,*51
1506118003.17,42054,15.44,73698.0,-2.39,-3.23,-3.23,0,*5F
1506118004.37,42055,15.44,73708.8,-2.39,-3.31,-3.31,0,*5E
1506118005.57,42056,15.44,73706.3,-2.39,-3.31,-3.31,0,*5D
1506118006.8,42057,15.44,73700.8,-2.39,-3.35,-3.43,0,*5D
1506118008.01,42058,15.44,73708.0,-2.39,-3.35,-3.35,0,*53
1506118009.23,42059,15.44,73714.5,-2.41,-3.31,-3.35,0,*59
1506118010.44,42060,15.44,73706.5,-2.39,-3.31,-3.35,0,*5C
1506118011.68,42061,15.44,73710.0,-2.41,-3.35,-3.43,0,*57
1506118012.93,42062,15.44,73706.0,-2.39,-3.43,-3.43,0,*5A
1506118014.18,42063,15.44,73704.5,-2.39,-3.43,-3.55,0,*5C
1506118015.42,42064,15.44,73708.0,-2.39,-3.43,-3.47,0,*58
1506118016.69,42065,15.44,73706.5,-2.41,-3.43,-3.47,0,*56
1506118017.95,42066,15.44,73710.5,-2.41,-3.43,-3.47,0,*55
1506118019.21,42067,15.44,73706.8,-2.41,-3.43,-3.55,0,*57
1506118020.46,42068,15.38,73696.8,-2.43,-3.51,-3.51,0,*5D
1506118021.68,42069,15.38,73700.8,-2.43,-3.39,-3.51,0,*52
1506118022.89,42070,15.44,73718.0,-2.43,-3.39,-3.39,0,*54
1506118024.11,42071,15.44,73714.8,-2.43,-3.47,-3.39,0,*5C
1506118025.31,42072,15.44,73710.0,-2.43,-3.39,-3.35,0,*5A
1506118026.51,42073,15.44,73702.0,-2.45,-3.27,-3.35,0,*52
1506118027.73,42074,15.44,73710.3,-2.41,-3.31,-3.23,0,*51
1506118028.95,42075,15.44,73704.5,-2.41,-3.31,-3.31,0,*53
1506118030.18,42076,15.44,73702.5,-2.41,-3.35,-3.35,0,*50
1506118031.42,42077,15.44,73702.8,-2.41,-3.31,-3.43,0,*54
1506118032.65,42078,15.44,73706.8,-2.41,-3.31,-3.35,0,*5A
1506118033.87,42079,15.44,73706.5,-2.43,-3.39,-3.47,0,*54
1506118035.12,42080,15.44,73708.5,-2.43,-3.47,-3.51,0,*5C
1506118036.37,42081,15.44,73712.0,-2.43,-3.51,-3.59,0,*52
1506118037.61,42082,15.44,73714.0,-2.43,-3.59,-3.63,0,*50
1506118038.86,42083,15.44,73708.3,-2.45,-3.59,-3.59,0,*5E
1506118040.1,42084,15.38,73710.5,-2.45,-3.59,-3.71,0,*53
1506118041.34,42085,15.38,73712.0,-2.45,-3.63,-3.63,0,*58
1506118042.58,42086,15.44,73708.0,-2.45,-3.51,-3.63,0,*5A
1506118043.82,42087,15.38,73706.8,-2.43,-3.47,-3.47,0,*5C
1506118045.07,42088,15.44,73716.0,-2.45,-3.51,-3.51,0,*55
1506118046.31,42089,15.44,73714.3,-2.45,-3.51,-3.51,0,*54
1506118047.55,42090,15.44,73710.0,-2.45,-3.47,-3.51,0,*5B
1506118048.8,42091,15.44,73708.3,-2.45,-3.59,-3.51,0,*55
1506118050.04,42092,15.44,73708.5,-2.45,-3.59,-3.59,0,*5E
1506118051.29,42093,15.38,73704.0,-2.45,-3.59,-3.51,0,*57
1506118052.53,42094,15.44,73708.3,-2.45,-3.59,-3.63,0,*51
1506118053.73,42095,15.44,73710.5,-2.49,-3.75,-3.79,0,*59
1506118054.93,42096,15.44,73714.8,-2.49,-3.75,-3.79,0,*5A
1506118056.16,42097,15.44,73708.0,-2.51,-3.75,-3.87,0,*53
1506118057.36,42098,15.44,73708.8,-2.49,-3.79,-3.91,0,*5E
1506118058.58,42099,15.44,73712.0,-2.51,-3.87,-3.91,0,*57
1506118059.8,42100,15.44,73714.3,-2.51,-3.87,-3.91,0,*56
1506118061.0,42101,15.44,73714.8,-2.49,-3.79,-3.87,0,*58
1506118062.23,42102,15.38,73712.0,-2.51,-3.79,-3.87,0,*52
1506118063.46,42103,15.44,73712.5,-2.51,-3.79,-3.91,0,*54
1506118064.68,42104,15.44,73712.3,-2.51,-3.79,-3.87,0,*54
1506118065.9,42105,15.44,73712.5,-2.51,-3.87,-3.87,0,*54
1506118067.13,42106,15.44,73714.3,-2.51,-3.79,-3.79,0,*57
1506118068.37,42107,15.44,73708.0,-2.51,-3.75,-3.67,0,*55
1506118069.6,42108,15.38,73704.0,-2.51,-3.75,-3.75,0,*59
1506118070.8,42109,15.44,73708.0,-2.53,-3.83,-3.83,0,*5A
1506118072.01,42110,15.44,73702.3,-2.53,-3.91,-3.95,0,*56
1506118073.21,42111,15.38,73698.0,-2.53,-3.91,-4.05,0,*59
1506118074.41,42112,15.44,73704.0,-2.53,-4.05,-4.05,0,*50
1506118075.63,42113,15.38,73698.8,-2.55,-4.05,-4.09,0,*5B
1506118076.85,42114,15.38,73700.0,-2.55,-4.05,-4.09,0,*5C
1506118078.05,42115,15.38,73694.3,-2.53,-3.95,-3.95,0,*57
1506118079.27,42116,15.44,73708.5,-2.55,-3.83,-3.91,0,*51
1506118080.5,42117,15.44,73702.8,-2.55,-3.91,-3.95,0,*57
1506118081.69,42118,15.44,73696.5,-2.57,-4.09,-4.09,0,*5E
1506118082.94,42119,15.44,73702.8,-2.57,-4.01,-4.01,0,*5F
1506118084.17,42120,15.38,73700.3,-2.57,-4.01,-4.09,0,*5D
1506118085.38,42121,15.44,73696.8,-2.57,-4.09,-4.01,0,*5C
1506118086.64,42122,15.44,73700.0,-2.59,-3.91,-4.01,0,*57
1506118087.87,42123,15.38,73704.0,-2.57,-3.91,-4.01,0,*58
1506118089.09,42124,15.38,73700.8,-2.57,-3.95,-4.01,0,*5B
1506118090.37,42125,15.44,73706.5,-2.59,-4.01,-4.01,0,*5E
1506118091.59,42126,15.44,73704.5,-2.57,-3.87,-4.01,0,*5A
1506118092.79,42127,15.44,73704.5,-2.57,-3.83,-3.87,0,*56
1506118094.0,42128,15.44,73704.0,-2.57,-3.71,-3.75,0,*59
1506118095.22,42129,15.44,73708.0,-2.57,-3.71,-3.75,0,*58
1506118096.45,42130,15.38,73706.0,-2.59,-3.79,-3.79,0,*5A
1506118097.65,42131,15.44,73710.3,-2.57,-3.83,-3.83,0,*55
1506118098.89,42132,15.44,73710.0,-2.57,-3.59,-3.63,0,*5F
1506118100.11,42133,15.38,73706.8,-2.57,-3.39,-3.51,0,*59
1506118101.3,42134,15.44,73706.0,-2.57,-3.39,-3.39,0,*50
1506118102.5,42135,15.44,73712.0,-2.57,-3.35,-3.39,0,*5D
1506118103.68,42136,15.38,73704.8,-2.57,-3.11,-3.19,0,*5A
1506118104.88,42137,15.44,73712.5,-2.57,-3.11,-3.07,0,*54
1506118106.07,42138,15.44,73716.8,-2.57,-3.11,-3.07,0,*5B